When you browse on this site, cookies collect data to enhance your experience and personalize the content and advertising you see.
Visit our Privacy Policy to learn more. By continuing to use the site, you agree to this use of cookies and data.

Hourly Weather Durres

Today, 9 July, Thursday

Time Temperature Precipitation Wind Pressure Humidity
00:00 +21°C° 0 mm 5 mps 760 mmHg 70%
01:00 +21°C° 0 mm 4 mps 760 mmHg 69%
02:00 +21°C° 0 mm 4 mps 760 mmHg 68%
03:00 +21°C° 0 mm 3 mps 760 mmHg 67%
04:00 +20°C° 0 mm 2 mps 760 mmHg 65%
05:00 +23°C° 0 mm 2 mps 760 mmHg 58%
06:00 +25°C° 0 mm 2 mps 760 mmHg 51%
07:00 +27°C° 0 mm 2 mps 761 mmHg 45%
08:00 +29°C° 0 mm 3 mps 761 mmHg 41%
09:00 +31°C° 0 mm 3 mps 761 mmHg 38%
10:00 +34°C° 0 mm 3 mps 761 mmHg 34%
11:00 +35°C° 0 mm 4 mps 761 mmHg 33%
12:00 +36°C° 0 mm 4 mps 761 mmHg 32%
13:00 +36°C° 0 mm 5 mps 761 mmHg 31%
14:00 +35°C° 0 mm 5 mps 760 mmHg 33%
15:00 +34°C° 0 mm 6 mps 760 mmHg 35%
16:00 +34°C° 0 mm 6 mps 760 mmHg 37%
17:00 +32°C° 0 mm 5 mps 760 mmHg 43%
18:00 +29°C° 0 mm 5 mps 760 mmHg 50%
19:00 +27°C° 0 mm 4 mps 760 mmHg 57%
20:00 +26°C° 0 mm 3 mps 760 mmHg 59%
21:00 +25°C° 0 mm 3 mps 760 mmHg 62%
22:00 +24°C° 0 mm 2 mps 760 mmHg 64%
23:00 +24°C° 0 mm 2 mps 760 mmHg 64%

Tomorrow, 10 July, Friday

Time Temperature Precipitation Wind Pressure Humidity
00:00 +24°C° 0 mm 2 mps 761 mmHg 64%
01:00 +23°C° 0 mm 2 mps 761 mmHg 63%
02:00 +23°C° 0 mm 2 mps 760 mmHg 62%
03:00 +23°C° 0 mm 2 mps 760 mmHg 60%
04:00 +23°C° 0 mm 2 mps 760 mmHg 58%
05:00 +25°C° 0 mm 2 mps 760 mmHg 53%
06:00 +27°C° 0 mm 2 mps 760 mmHg 47%
07:00 +29°C° 0 mm 2 mps 760 mmHg 41%
08:00 +31°C° 0 mm 2 mps 760 mmHg 37%
09:00 +34°C° 0 mm 2 mps 760 mmHg 33%
10:00 +36°C° 0 mm 2 mps 760 mmHg 29%
11:00 +36°C° 0 mm 2 mps 760 mmHg 30%
12:00 +36°C° 0 mm 3 mps 760 mmHg 30%
13:00 +36°C° 0 mm 4 mps 759 mmHg 31%
14:00 +36°C° 0 mm 4 mps 759 mmHg 32%
15:00 +35°C° 0 mm 5 mps 759 mmHg 33%
16:00 +35°C° 0 mm 5 mps 759 mmHg 34%
17:00 +32°C° 0 mm 4 mps 759 mmHg 41%
18:00 +29°C° 0 mm 3 mps 759 mmHg 47%
19:00 +27°C° 0 mm 2 mps 759 mmHg 54%
20:00 +27°C° 0 mm 2 mps 759 mmHg 56%
21:00 +26°C° 0 mm 1 mps 759 mmHg 58%
22:00 +25°C° 0 mm 1 mps 759 mmHg 61%
23:00 +25°C° 0 mm 1 mps 759 mmHg 61%

Day after tomorrow, 11 July, Saturday

Time Temperature Precipitation Wind Pressure Humidity
00:00 +25°C° 0 mm 1 mps 759 mmHg 61%
01:00 +24°C° 0 mm 1 mps 759 mmHg 61%
02:00 +24°C° 0 mm 1 mps 759 mmHg 62%
03:00 +24°C° 0 mm 1 mps 759 mmHg 63%
04:00 +24°C° 0 mm 1 mps 759 mmHg 64%
05:00 +26°C° 0 mm 1 mps 759 mmHg 59%
06:00 +27°C° 0 mm 1 mps 759 mmHg 54%
07:00 +29°C° 0 mm 1 mps 759 mmHg 49%
08:00 +31°C° 0 mm 1 mps 759 mmHg 44%
09:00 +34°C° 0 mm 2 mps 759 mmHg 40%
10:00 +36°C° 0 mm 2 mps 759 mmHg 36%
11:00 +36°C° 0 mm 3 mps 758 mmHg 35%
12:00 +36°C° 0 mm 3 mps 758 mmHg 33%
13:00 +36°C° 0 mm 4 mps 758 mmHg 32%
14:00 +36°C° 0 mm 4 mps 758 mmHg 32%
15:00 +35°C° 0 mm 4 mps 757 mmHg 32%
16:00 +35°C° 0 mm 4 mps 757 mmHg 33%
17:00 +33°C° 0 mm 3 mps 757 mmHg 38%
18:00 +30°C° 0 mm 2 mps 757 mmHg 44%
19:00 +28°C° 0 mm 2 mps 757 mmHg 50%
20:00 +27°C° 0 mm 1 mps 758 mmHg 52%
21:00 +26°C° 0 mm 1 mps 758 mmHg 54%
22:00 +23°C° 0 mm 0 mps 758 mmHg 57%
23:00 +25°C° 0 mm 1 mps 758 mmHg 58%

12 July, Sunday

Time Temperature Precipitation Wind Pressure Humidity
00:00 +24°C° 0 mm 1 mps 758 mmHg 60%
01:00 +24°C° 0 mm 1 mps 757 mmHg 62%
02:00 +24°C° 0 mm 1 mps 757 mmHg 62%
03:00 +23°C° 0 mm 1 mps 757 mmHg 63%
04:00 +23°C° 0 mm 1 mps 757 mmHg 63%
05:00 +25°C° 0 mm 1 mps 757 mmHg 57%
06:00 +27°C° 0 mm 1 mps 757 mmHg 51%
07:00 +29°C° 0 mm 1 mps 758 mmHg 45%
08:00 +31°C° 0 mm 2 mps 758 mmHg 41%
09:00 +34°C° 0 mm 3 mps 758 mmHg 36%
10:00 +35°C° 0 mm 3 mps 758 mmHg 32%
11:00 +35°C° 0 mm 5 mps 758 mmHg 34%
12:00 +36°C° 0 mm 6 mps 758 mmHg 35%
13:00 +36°C° 0 mm 7 mps 758 mmHg 37%
14:00 +35°C° 0 mm 7 mps 758 mmHg 40%
15:00 +34°C° 0 mm 7 mps 758 mmHg 42%
16:00 +34°C° 0 mm 7 mps 758 mmHg 45%
17:00 +32°C° 0 mm 7 mps 758 mmHg 52%
18:00 +29°C° 0 mm 7 mps 758 mmHg 58%
19:00 +27°C° 0 mm 7 mps 759 mmHg 65%
20:00 +26°C° 0 mm 7 mps 759 mmHg 72%
21:00 +24°C° 0 mm 6 mps 759 mmHg 79%
22:00 +23°C° 0 mm 6 mps 759 mmHg 86%
23:00 +23°C° 0 mm 6 mps 759 mmHg 85%

13 July, Monday

Time Temperature Precipitation Wind Pressure Humidity
00:00 +23°C° 0 mm 5 mps 759 mmHg 85%
01:00 +22°C° 0 mm 5 mps 759 mmHg 84%
02:00 +22°C° 0 mm 5 mps 759 mmHg 84%
03:00 +22°C° 0 mm 5 mps 759 mmHg 84%
04:00 +21°C° 0 mm 4 mps 759 mmHg 84%
05:00 +23°C° 0 mm 5 mps 759 mmHg 75%
06:00 +26°C° 0 mm 5 mps 759 mmHg 65%
07:00 +28°C° 0 mm 6 mps 759 mmHg 56%
08:00 +29°C° 0 mm 6 mps 759 mmHg 51%
09:00 +32°C° 0 mm 7 mps 759 mmHg 46%
10:00 +34°C° 0 mm 8 mps 759 mmHg 41%
11:00 +34°C° 0 mm 8 mps 759 mmHg 38%
12:00 +35°C° 0 mm 9 mps 759 mmHg 35%
13:00 +37°C° 0 mm 9 mps 758 mmHg 32%
14:00 +35°C° 0 mm 9 mps 758 mmHg 33%
15:00 +35°C° 0 mm 9 mps 758 mmHg 35%
16:00 +34°C° 0 mm 9 mps 757 mmHg 36%
17:00 +32°C° 0 mm 9 mps 758 mmHg 41%
18:00 +31°C° 0 mm 10 mps 758 mmHg 45%
19:00 +28°C° 0 mm 10 mps 758 mmHg 50%
20:00 +27°C° 0 mm 9 mps 758 mmHg 54%
21:00 +24°C° 0 mm 8 mps 758 mmHg 58%
22:00 +23°C° 0 mm 7 mps 759 mmHg 61%
23:00 +22°C° 0 mm 7 mps 759 mmHg 59%

14 July, Tuesday

Time Temperature Precipitation Wind Pressure Humidity
00:00 +21°C° 0 mm 7 mps 759 mmHg 57%
01:00 +21°C° 0 mm 6 mps 759 mmHg 55%
02:00 +20°C° 0 mm 6 mps 758 mmHg 54%
03:00 +20°C° 0 mm 6 mps 758 mmHg 53%
04:00 +19°C° 0 mm 6 mps 758 mmHg 53%
05:00 +21°C° 0 mm 6 mps 758 mmHg 48%
06:00 +23°C° 0 mm 5 mps 758 mmHg 44%
07:00 +26°C° 0 mm 4 mps 758 mmHg 39%
08:00 +28°C° 0 mm 5 mps 758 mmHg 36%
09:00 +30°C° 0 mm 5 mps 759 mmHg 32%
10:00 +33°C° 0 mm 5 mps 759 mmHg 29%
11:00 +33°C° 0 mm 6 mps 758 mmHg 29%
12:00 +34°C° 0 mm 6 mps 758 mmHg 29%
13:00 +34°C° 0 mm 7 mps 758 mmHg 29%
14:00 +33°C° 0 mm 7 mps 758 mmHg 31%
15:00 +33°C° 0 mm 7 mps 758 mmHg 33%
16:00 +32°C° 0 mm 8 mps 758 mmHg 36%
17:00 +29°C° 0 mm 7 mps 758 mmHg 44%
18:00 +27°C° 0 mm 7 mps 758 mmHg 52%
19:00 +24°C° 0 mm 6 mps 758 mmHg 60%
20:00 +23°C° 0 mm 5 mps 758 mmHg 64%
21:00 +22°C° 0 mm 3 mps 759 mmHg 69%
22:00 +21°C° 0 mm 2 mps 759 mmHg 74%
23:00 +20°C° 0 mm 2 mps 759 mmHg 74%
Show more